Temperature
20 20 19 17 17 17 17 17 17 16 16 16 16 16 16 15 15 15 15 15 15 15 14 14 14 14 14 14 14 14 14 14 15 14 14 14 14 14 14 14 13 13 13
21 20 19 18 17 17 17 17 17 16 16 16 16 16 15 15 15 15 15 15 14 14 14 14 14 14 14 14 14 14 14 14 14 14 14 14 14 14 14 14 13 13 13
21 20 19 18 17 17 17 16 16 16 16 16 16 15 15 15 15 15 15 15 14 14 14 14 14 14 14 14 14 14 14 14 14 14 14 13 13 14 14 14 14 13 14
19 19 18 18 17 17 16 16 16 16 16 16 16 15 15 15 15 15 15 14 14 14 14 14 14 14 14 14 14 14 14 14 14 14 13 13 13 13 13 13 13 13 13
18 18 18 17 17 16 16 16 16 16 16 16 15 15 15 15 15 15 15 14 14 14 14 14 14 14 14 14 14 14 14 14 14 13 13 13 13 13 13 13 13 13 13
17 17 18 17 17 16 16 16 16 16 16 16 16 15 15 15 15 15 14 14 14 14 14 14 14 14 14 14 14 14 13 13 13 13 13 13 13 13 13 13 13 13 13
17 17 17 17 17 16 16 16 16 16 16 16 16 16 16 15 15 15 14 14 14 14 14 14 14 14 14 14 14 14 13 13 12 13 13 13 13 13 13 13 13 13 13
17 16 16 16 16 16 16 16 16 16 16 16 16 16 16 16 15 15 15 14 14 14 14 14 14 14 14 14 14 13 13 13 12 12 12 12 13 13 13 13 13 13 13
16 16 16 16 16 16 16 16 16 16 16 16 16 16 16 16 15 15 14 14 14 14 14 14 14 14 14 14 14 13 13 13 12 12 12 12 12 12 13 13 13 13 13
16 16 16 16 15 16 16 16 16 16 16 16 16 16 16 16 16 15 14 14 14 14 14 14 14 14 14 14 14 13 13 13 12 12 12 12 12 12 12 12 12 12 12
16 16 16 16 15 15 15 16 16 16 16 16 16 16 16 16 15 15 15 14 14 14 14 14 14 14 14 14 13 13 13 12 12 12 11 12 12 12 12 12 12 12 12
16 16 16 16 16 15 16 16 15 16 16 16 16 16 16 15 15 15 15 14 14 14 14 14 14 14 13 13 13 13 12 12 11 11 11 12 11 12 12 12 11 11 11
16 16 15 16 16 15 16 16 16 16 16 16 15 15 15 15 15 15 15 15 14 14 14 14 14 13 13 13 12 12 12 12 11 11 11 11 11 11 11 11 11 11 11
15 16 15 16 16 15 16 16 16 16 16 16 16 16 16 16 16 15 15 15 14 14 14 14 13 13 13 13 12 12 12 11 11 10 11 11 11 11 11 11 11 10 10
15 15 16 16 16 16 16 16 16 16 16 16 16 16 16 16 16 15 15 15 14 14 14 14 13 13 13 12 12 12 12 11 11 10 11 11 11 11 10 10 10 10 10
15 15 16 16 16 16 16 16 16 16 16 16 16 16 16 16 16 16 15 15 14 14 14 14 13 13 13 12 12 12 12 11 11 10 10 11 11 11 10 10 10 10 10
15 15 16 16 16 16 16 16 16 16 16 16 16 16 16 16 16 15 15 15 14 14 14 13 13 13 13 13 12 12 11 11 11 11 10 10 10 11 10 10 10 10 10
15 15 16 16 16 17 17 16 16 16 16 16 16 16 16 15 15 15 15 15 14 14 14 13 13 13 13 12 12 12 12 12 11 11 11 11 10 10 10 10 10 10 9
16 16 16 16 17 17 17 16 16 16 16 16 16 16 16 15 15 15 14 14 14 14 13 13 13 12 12 12 12 12 11 11 11 11 11 11 11 10 10 10 10 9 9
16 16 16 16 17 17 17 16 16 16 16 16 16 16 16 15 15 14 14 14 14 13 13 13 12 12 12 12 12 11 11 11 11 11 11 11 11 10 10 10 9 9 9
16 16 16 16 17 16 16 16 16 17 17 17 17 16 16 15 15 14 14 14 13 13 13 13 12 12 12 12 11 11 11 11 11 11 11 10 10 10 10 9 9 9 8
16 16 16 16 16 16 16 17 17 17 17 17 17 16 16 16 15 15 14 14 14 13 13 12 12 12 12 12 11 10 10 10 11 11 11 11 10 10 10 9 9 8 8
15 16 16 16 16 16 16 16 16 16 16 16 16 17 17 16 16 16 15 14 14 13 13 13 13 12 12 12 11 10 10 11 11 11 11 11 10 10 9 9 9 8 8
15 15 15 16 16 16 16 16 15 15 15 16 16 16 17 16 16 16 15 14 14 13 13 13 13 12 12 11 11 11 11 11 11 11 11 11 10 10 9 9 8 8 7
14 14 15 15 15 15 15 15 15 15 15 15 15 15 16 16 16 15 15 14 13 13 13 13 13 12 12 11 11 11 10 10 10 10 10 10 10 9 8 8 7 7 6
13 14 14 14 14 14 14 14 14 14 15 14 14 15 15 15 15 15 15 14 13 13 13 12 12 12 12 11 11 11 11 10 10 10 9 9 9 9 8 7 7 6 6
Wind_Speed
12 18 20 19 18 18 18 18 18 17 16 16 15 14 13 12 11 10 9 8 8 9 10 11 12 12 13 13 13 13 13 13 12 12 12 12 11 10 10 9 6 9 9
16 19 21 19 19 19 19 18 18 17 16 15 15 14 12 11 10 8 8 7 8 9 10 12 12 13 13 13 12 12 12 12 11 10 8 9 9 9 8 8 8 8 8
18 20 21 19 19 19 19 18 18 17 16 15 14 13 11 10 9 8 7 8 8 10 11 13 13 13 13 13 12 11 11 11 10 7 3 7 8 7 7 6 7 7 6
17 19 20 20 19 19 19 19 18 17 15 14 13 12 11 9 8 7 8 8 9 11 13 14 14 13 13 12 11 11 10 10 8 2 6 8 8 8 6 6 5 6 6
16 17 19 20 19 18 19 19 18 17 15 14 13 12 10 9 8 8 9 10 11 13 13 14 14 13 12 11 10 10 10 9 5 4 8 7 8 8 8 9 8 8 8
15 17 19 19 18 18 18 18 17 16 15 14 13 11 10 9 9 9 10 12 13 13 13 13 13 12 11 10 9 9 9 6 5 7 7 7 8 9 10 11 13 13 14
15 15 19 18 18 18 18 17 17 15 14 13 13 11 10 10 10 11 12 13 13 13 13 13 12 11 10 9 9 9 8 4 5 7 7 8 10 11 13 14 15 15 16
14 14 17 17 18 18 17 16 16 15 14 13 12 11 11 10 11 11 12 12 12 12 12 11 11 10 9 9 9 8 7 4 6 6 7 9 12 12 14 14 14 15 15
14 14 15 16 16 17 16 16 15 15 14 13 12 11 11 11 11 11 11 11 11 11 11 11 10 9 8 8 8 8 7 4 4 5 6 8 11 12 13 13 13 13 13
13 13 13 14 14 15 15 16 15 15 14 14 12 12 12 11 11 10 10 10 10 10 10 10 9 9 9 8 8 8 8 5 4 5 5 8 10 10 11 11 11 12 12
12 12 12 13 13 13 13 14 15 15 14 14 13 14 13 11 11 11 9 9 9 10 10 10 9 9 9 9 8 8 7 4 4 4 5 9 9 10 10 10 10 10 11
14 13 12 12 12 12 11 12 12 13 13 13 12 14 11 10 9 9 10 9 9 10 10 9 9 9 7 7 8 7 5 5 4 4 7 9 9 9 9 9 9 9 9
12 12 11 11 12 12 10 10 10 10 11 12 12 13 11 10 9 9 10 10 9 10 8 9 9 7 6 5 6 6 4 4 4 4 8 9 9 9 9 8 8 8 8
11 12 12 11 11 11 11 9 10 9 10 10 12 13 11 9 9 9 9 9 9 8 8 8 6 7 6 6 6 6 6 5 4 4 8 9 9 8 8 8 7 7 7
11 12 12 12 12 11 10 9 9 10 10 11 11 13 13 10 9 9 9 9 9 8 8 7 7 7 7 6 6 6 6 6 6 6 7 9 9 8 8 7 6 6 6
12 12 12 13 13 12 11 10 9 10 10 11 12 14 15 12 10 10 9 9 9 9 9 8 8 7 6 6 6 7 7 6 6 6 7 9 9 9 8 7 6 5 5
12 13 14 14 14 14 13 12 10 10 11 11 12 15 16 15 13 11 9 9 10 10 10 9 8 7 6 6 7 7 7 7 7 7 7 7 9 9 8 8 7 5 4
12 12 13 12 14 15 14 12 10 11 12 12 13 14 17 18 16 13 10 10 12 11 10 8 8 7 7 7 7 6 6 6 8 8 8 8 8 8 9 8 7 6 4
13 13 14 14 15 15 14 12 11 11 12 12 13 14 16 19 18 16 12 12 13 11 10 9 9 8 8 7 6 6 6 6 7 8 9 9 9 9 8 9 8 6 4
11 12 13 14 15 14 12 11 10 11 11 12 13 15 17 18 19 18 13 14 14 11 11 11 11 9 8 7 6 6 6 6 7 8 9 10 9 10 10 9 9 7 5
9 11 12 13 13 12 10 11 11 12 12 12 13 17 18 18 19 18 13 14 14 13 14 14 12 11 9 8 6 5 6 7 8 7 9 9 10 11 11 10 9 7 6
8 9 10 11 12 12 12 11 10 11 10 12 11 14 19 20 20 18 17 15 15 14 16 16 14 10 8 9 8 5 5 7 8 9 8 8 10 10 11 11 10 8 7
5 5 6 8 10 11 12 10 8 9 8 10 13 14 17 20 21 20 19 17 16 16 15 17 17 16 12 11 10 8 6 8 5 6 9 9 9 8 9 10 10 9 8
3 3 4 5 7 8 9 10 13 12 13 15 13 13 15 17 19 20 19 18 17 15 16 17 17 15 14 11 9 9 6 3 5 5 5 8 9 9 9 8 9 9 8
2 2 3 4 4 5 7 9 12 13 14 13 13 14 14 14 16 17 18 16 16 15 17 16 16 17 14 13 10 7 7 4 4 5 4 5 6 6 6 7 7 8 8
3 3 2 2 3 4 6 8 10 13 14 14 15 14 13 11 12 15 16 16 16 14 15 15 15 17 14 13 10 8 6 5 6 6 5 3 4 4 4 4 5 6 7
Wind_Direction
156 154 153 156 156 153 148 145 143 141 139 137 137 135 134 133 131 129 130 131 131 129 124 116 110 106 103 99 94 90 88 86 84 77 70 66 68 75 73 63 62 80 74
151 153 151 155 156 154 150 147 143 140 139 138 138 136 135 135 134 135 138 136 135 133 128 119 112 109 106 102 97 94 90 88 86 80 79 85 75 72 71 60 45 63 64
151 151 154 154 155 154 151 146 143 142 141 141 140 138 136 135 138 137 140 135 132 130 126 120 114 110 107 104 101 97 94 90 87 87 112 94 88 77 72 68 65 64 61
152 152 158 152 154 153 150 147 146 145 144 142 140 139 136 134 136 138 136 134 128 126 123 119 115 112 109 106 103 99 97 93 89 108 90 78 82 79 71 65 63 60 58
153 154 150 151 154 153 151 149 148 147 146 144 141 139 135 132 131 129 130 129 124 121 118 119 118 116 111 108 105 101 100 98 103 93 82 78 78 72 72 67 64 63 63
156 154 151 153 153 152 151 151 150 149 148 146 143 139 137 134 130 125 121 120 120 120 121 121 121 118 113 110 107 105 107 116 138 89 82 75 75 75 77 73 70 68 68
157 154 155 153 152 153 153 153 152 152 151 148 145 144 142 137 129 122 120 121 123 123 123 124 123 119 116 114 111 110 112 116 96 91 81 74 71 75 77 75 71 70 69
157 155 156 153 153 155 156 156 156 156 154 151 149 150 148 143 135 128 126 127 128 128 128 127 126 123 121 119 117 116 120 133 106 93 83 80 76 77 78 76 73 71 69
161 160 162 166 163 159 159 160 161 158 156 155 155 153 148 141 141 139 136 136 133 131 131 130 129 127 126 125 123 122 123 127 117 99 90 84 82 83 80 78 77 74 71
169 169 169 172 173 173 171 166 162 159 159 157 155 149 142 140 146 147 150 143 139 136 133 132 132 130 127 127 128 128 136 167 128 120 103 95 91 88 85 81 79 76 73
180 178 177 177 177 178 177 169 168 164 163 161 159 151 157 167 164 164 158 145 145 140 137 138 135 130 128 127 131 142 165 172 137 119 108 102 102 97 92 87 84 82 77
188 187 185 185 181 181 176 175 181 180 177 183 177 173 181 176 172 165 148 149 143 140 142 142 140 147 164 152 147 170 178 169 152 140 119 114 112 106 100 97 93 88 82
193 192 194 192 189 186 182 184 183 186 186 191 187 184 183 178 173 175 171 169 167 165 167 155 168 179 183 171 171 179 175 168 162 144 129 124 122 117 113 106 100 93 87
198 198 198 199 197 197 192 191 191 191 191 192 192 190 186 184 185 185 187 184 184 186 183 186 190 183 186 182 185 180 175 178 172 154 132 132 133 129 124 117 110 102 93
205 203 202 202 205 204 202 201 202 201 199 197 195 196 195 192 192 189 193 191 195 192 190 194 196 188 190 188 189 186 184 183 175 167 144 137 138 140 138 132 124 114 102
210 208 204 205 207 209 208 207 209 208 205 205 201 202 201 201 198 194 196 197 198 198 198 198 198 193 195 194 191 190 190 184 185 182 166 148 142 149 152 147 138 126 112
216 213 209 207 208 211 214 214 214 212 210 210 208 207 206 207 204 201 202 200 201 201 199 201 198 199 196 193 196 196 195 194 189 188 185 177 164 156 160 158 149 140 126
221 218 214 209 211 213 215 215 216 216 215 215 213 212 210 211 209 207 208 206 203 199 200 199 199 199 197 199 197 194 196 195 201 195 192 190 184 175 168 164 159 152 140
225 221 217 213 215 215 215 217 218 218 219 219 218 217 214 214 212 211 213 210 203 202 203 202 204 205 203 202 199 196 201 200 201 202 203 197 193 190 182 162 159 154 153
231 227 222 216 217 216 213 215 219 222 223 223 222 221 218 216 215 215 216 214 206 204 205 204 203 205 208 197 191 198 207 207 209 206 206 202 197 196 197 186 181 169 161
226 227 226 223 219 214 211 212 215 221 223 223 225 225 223 220 217 216 217 215 210 210 209 206 201 201 201 187 184 200 212 219 219 211 210 207 202 201 202 201 202 197 188
225 226 228 227 225 219 218 217 220 223 226 226 225 228 226 223 220 217 217 216 213 214 213 209 201 202 197 190 196 200 214 214 220 217 212 213 208 200 205 206 205 205 207
233 235 234 233 232 227 226 224 223 224 229 227 226 227 226 224 222 219 220 220 216 214 215 210 205 203 202 199 206 205 211 223 192 197 213 212 210 205 206 205 207 205 207
254 259 253 248 241 236 230 226 223 223 227 230 231 231 230 226 225 223 221 221 219 216 218 214 210 210 207 201 207 225 238 253 194 186 199 212 214 215 211 204 206 206 208
322 301 283 269 257 251 240 232 232 235 238 242 240 239 236 231 228 226 223 221 221 219 219 216 211 212 211 208 199 198 212 228 236 217 197 187 205 216 215 211 208 208 205
23 9 344 302 277 269 257 245 237 240 243 246 245 243 240 237 231 227 225 223 223 221 220 218 212 212 212 212 203 195 188 191 206 210 210 184 190 184 204 215 215 211 206
Height
1522 1524 1527 1529 1532 1534 1537 1539 1541 1543 1545 1546 1547 1548 1549 1549 1550 1550 1550 1550 1550 1550 1550 1551 1551 1551 1551 1550 1550 1550 1550 1550 1550 1550 1550 1551 1551 1552 1552 1553 1553 1554 1553
1521 1524 1527 1529 1532 1535 1538 1540 1542 1544 1545 1547 1548 1548 1549 1549 1550 1550 1550 1550 1550 1551 1551 1551 1552 1552 1552 1551 1551 1551 1551 1551 1551 1551 1552 1552 1553 1553 1554 1554 1554 1554 1554
1521 1524 1527 1530 1533 1535 1538 1540 1542 1544 1546 1547 1548 1548 1549 1549 1549 1549 1550 1550 1550 1551 1552 1553 1553 1553 1553 1553 1552 1552 1552 1552 1552 1553 1553 1555 1555 1555 1555 1555 1555 1555 1555
1522 1525 1528 1530 1533 1536 1538 1540 1542 1544 1546 1547 1548 1548 1549 1549 1549 1549 1550 1550 1551 1552 1553 1554 1554 1554 1554 1554 1554 1554 1554 1554 1554 1555 1557 1557 1557 1556 1556 1556 1556 1556 1556
1523 1526 1528 1531 1533 1536 1538 1541 1543 1544 1546 1547 1548 1548 1549 1549 1549 1550 1550 1551 1552 1553 1554 1555 1555 1556 1556 1556 1556 1556 1556 1556 1556 1557 1558 1558 1558 1558 1558 1558 1557 1557 1557
1524 1527 1528 1531 1534 1536 1539 1541 1543 1544 1546 1547 1548 1548 1549 1549 1550 1550 1551 1552 1553 1554 1555 1556 1557 1557 1557 1557 1557 1557 1558 1558 1559 1559 1560 1560 1559 1559 1559 1559 1559 1558 1558
1525 1527 1529 1532 1534 1537 1539 1541 1542 1544 1546 1547 1548 1548 1549 1550 1550 1551 1552 1553 1554 1555 1556 1557 1558 1558 1558 1558 1559 1559 1559 1559 1561 1561 1561 1561 1560 1560 1560 1559 1559 1559 1559
1525 1527 1529 1532 1535 1537 1539 1541 1542 1544 1545 1546 1547 1548 1549 1550 1550 1551 1553 1554 1555 1556 1557 1558 1558 1559 1559 1559 1560 1560 1560 1561 1562 1562 1562 1562 1561 1561 1560 1560 1560 1560 1559
1526 1528 1530 1532 1534 1537 1539 1541 1542 1544 1545 1546 1547 1548 1549 1550 1551 1552 1553 1554 1555 1556 1557 1558 1559 1559 1560 1560 1560 1561 1561 1562 1563 1563 1563 1562 1561 1561 1561 1560 1560 1559 1559
1525 1528 1530 1532 1534 1536 1538 1540 1542 1543 1545 1546 1547 1548 1549 1550 1551 1552 1553 1554 1555 1556 1557 1558 1559 1560 1560 1561 1561 1561 1562 1562 1564 1563 1563 1562 1561 1561 1561 1560 1559 1559 1558
1524 1527 1529 1532 1534 1536 1538 1539 1541 1542 1544 1545 1546 1547 1549 1550 1551 1552 1553 1554 1555 1556 1557 1558 1559 1560 1560 1561 1561 1561 1562 1563 1564 1564 1563 1561 1561 1561 1560 1559 1559 1558 1557
1522 1525 1528 1530 1533 1535 1537 1538 1540 1542 1543 1545 1546 1547 1548 1550 1551 1552 1552 1554 1555 1556 1557 1558 1558 1559 1560 1560 1561 1561 1562 1563 1563 1563 1562 1561 1560 1560 1559 1559 1558 1557 1556
1522 1524 1526 1529 1531 1533 1535 1537 1539 1540 1542 1543 1545 1546 1547 1548 1549 1550 1552 1553 1554 1555 1556 1557 1558 1559 1559 1560 1560 1561 1562 1562 1563 1562 1561 1560 1559 1559 1558 1558 1557 1556 1555
1520 1522 1524 1527 1529 1531 1534 1535 1537 1539 1540 1541 1543 1544 1546 1547 1548 1549 1551 1552 1553 1554 1555 1556 1557 1558 1558 1559 1559 1560 1560 1561 1561 1561 1559 1559 1558 1558 1557 1557 1556 1555 1555
1518 1520 1522 1524 1527 1529 1531 1533 1535 1536 1538 1539 1541 1542 1543 1545 1546 1547 1549 1550 1551 1552 1553 1554 1555 1556 1557 1557 1558 1558 1558 1559 1559 1559 1558 1557 1557 1556 1556 1556 1555 1554 1554
1516 1518 1520 1522 1524 1526 1528 1530 1532 1534 1535 1537 1538 1539 1541 1542 1544 1545 1546 1547 1549 1550 1551 1552 1553 1554 1555 1555 1556 1556 1556 1556 1556 1557 1557 1555 1555 1555 1555 1554 1554 1553 1553
1514 1516 1517 1519 1522 1524 1526 1528 1529 1531 1532 1534 1535 1536 1538 1539 1541 1542 1543 1544 1546 1547 1548 1549 1550 1551 1552 1552 1553 1553 1554 1554 1554 1554 1554 1554 1553 1553 1553 1552 1552 1552 1551
1511 1513 1515 1516 1518 1520 1522 1524 1526 1528 1529 1530 1532 1533 1534 1536 1537 1538 1539 1541 1543 1544 1545 1546 1547 1548 1549 1549 1550 1550 1551 1551 1552 1552 1551 1551 1551 1551 1550 1550 1550 1550 1549
1507 1509 1511 1513 1515 1517 1519 1521 1522 1524 1525 1526 1528 1529 1530 1531 1533 1534 1535 1537 1538 1540 1541 1542 1543 1545 1546 1546 1547 1547 1548 1548 1548 1548 1548 1548 1548 1548 1548 1547 1547 1547 1547
1502 1505 1507 1508 1511 1513 1514 1516 1517 1519 1520 1521 1522 1524 1525 1527 1528 1529 1530 1532 1533 1535 1536 1537 1539 1540 1542 1542 1543 1544 1544 1544 1544 1544 1545 1544 1544 1544 1544 1544 1544 1544 1544
1497 1499 1501 1504 1506 1507 1509 1510 1511 1513 1514 1516 1517 1519 1520 1521 1523 1524 1525 1527 1528 1529 1530 1532 1534 1535 1536 1538 1539 1539 1539 1540 1540 1540 1540 1540 1540 1540 1540 1540 1540 1540 1540
1492 1494 1496 1498 1500 1502 1503 1505 1506 1508 1509 1510 1511 1513 1514 1515 1516 1518 1519 1520 1521 1523 1524 1526 1527 1529 1530 1532 1534 1535 1536 1536 1533 1534 1534 1535 1535 1535 1535 1536 1536 1536 1535
1486 1488 1490 1492 1494 1496 1497 1499 1500 1501 1502 1504 1505 1506 1507 1508 1509 1510 1512 1514 1515 1516 1517 1519 1520 1522 1524 1525 1527 1530 1530 1529 1528 1528 1528 1529 1529 1529 1530 1530 1531 1531 1531
1482 1484 1485 1487 1489 1490 1491 1492 1493 1494 1495 1496 1498 1499 1500 1501 1502 1503 1505 1506 1507 1509 1510 1512 1513 1515 1517 1518 1520 1521 1523 1523 1523 1522 1522 1523 1523 1524 1524 1525 1525 1525 1525
1478 1479 1480 1482 1483 1484 1485 1486 1487 1487 1489 1490 1491 1492 1493 1494 1495 1496 1497 1498 1500 1501 1503 1504 1506 1508 1509 1511 1511 1513 1514 1516 1516 1518 1517 1517 1517 1518 1518 1519 1519 1520 1520
1475 1475 1476 1477 1478 1479 1480 1480 1480 1481 1482 1483 1484 1484 1485 1486 1487 1488 1489 1490 1492 1493 1495 1496 1498 1500 1501 1503 1504 1506 1507 1508 1508 1510 1511 1511 1511 1512 1513 1513 1513 1514 1514